NJE657N LFMN-LEIB

Flight info

Callsign NJE657N
Flight time N/A
Altitude 35000
Route RUBAS DCT BALEN DCT SORAS N850 POS
Aircraft CL60/M-SADE3FGHIJ3J4J7P2RWXY/HB1D1

Departure

Time 2026-05-01 14:10
Airport Nice-Côte d'Azur Airport (LFMN)

Arrival

Time N/A
Airport Ibiza Airport (LEIB)
Time Latitude Longitude Altitude Speed Heading
2026-05-01 12:17 43.67252 7.22710 34 ft 0 kts 134°
2026-05-01 13:50 43.67252 7.22711 34 ft 0 kts 134°
2026-05-01 13:52 43.67249 7.22715 33 ft 2 kts 139°
2026-05-01 13:52 43.67228 7.22720 33 ft 3 kts 195°
2026-05-01 13:52 43.67207 7.22697 33 ft 6 kts 224°
2026-05-01 13:52 43.67169 7.22645 33 ft 7 kts 224°
2026-05-01 13:53 43.67130 7.22593 33 ft 7 kts 224°
2026-05-01 13:53 43.67052 7.22488 33 ft 7 kts 224°
2026-05-01 13:53 43.67014 7.22435 33 ft 7 kts 224°
2026-05-01 13:54 43.66975 7.22383 33 ft 7 kts 224°
2026-05-01 13:54 43.66937 7.22328 33 ft 7 kts 230°
2026-05-01 13:54 43.66901 7.22273 33 ft 7 kts 226°
2026-05-01 13:54 43.66864 7.22219 33 ft 7 kts 226°
2026-05-01 13:55 43.66827 7.22165 33 ft 7 kts 226°
2026-05-01 13:55 43.66793 7.22116 33 ft 5 kts 230°
2026-05-01 13:55 43.66763 7.22061 34 ft 7 kts 228°
2026-05-01 13:55 43.66727 7.22009 34 ft 5 kts 225°
2026-05-01 13:56 43.66710 7.21985 34 ft 1 kts 225°
2026-05-01 13:56 43.66713 7.21990 34 ft 2 kts 239°
2026-05-01 13:56 43.66716 7.22010 34 ft 2 kts 278°
2026-05-01 13:56 43.66710 7.22028 34 ft 2 kts 315°
2026-05-01 13:57 43.66702 7.22038 34 ft 0 kts 313°
2026-05-01 14:01 43.66703 7.22038 34 ft 0 kts 313°
2026-05-01 14:01 43.66709 7.22026 34 ft 4 kts 294°
2026-05-01 14:01 43.66693 7.21975 34 ft 7 kts 224°
2026-05-01 14:02 43.66646 7.21922 35 ft 3 kts 184°
2026-05-01 14:02 43.66614 7.21946 34 ft 9 kts 136°
2026-05-01 14:02 43.66545 7.21964 33 ft 13 kts 231°
2026-05-01 14:02 43.66469 7.21858 34 ft 16 kts 224°
2026-05-01 14:03 43.66395 7.21755 34 ft 16 kts 225°
2026-05-01 14:03 43.66305 7.21636 35 ft 19 kts 223°
2026-05-01 14:03 43.66204 7.21494 35 ft 21 kts 225°
2026-05-01 14:03 43.66089 7.21335 35 ft 24 kts 225°
2026-05-01 14:04 43.65978 7.21182 35 ft 17 kts 225°
2026-05-01 14:04 43.65883 7.21050 35 ft 21 kts 225°
2026-05-01 14:04 43.65777 7.20904 34 ft 21 kts 224°
2026-05-01 14:04 43.65702 7.20801 33 ft 23 kts 224°
2026-05-01 14:05 43.65551 7.20593 31 ft 21 kts 225°
2026-05-01 14:05 43.65447 7.20450 30 ft 17 kts 224°
2026-05-01 14:05 43.65363 7.20336 29 ft 14 kts 224°
2026-05-01 14:05 43.65280 7.20294 29 ft 6 kts 148°
2026-05-01 14:06 43.65274 7.20299 28 ft 0 kts 140°
2026-05-01 14:06 43.65274 7.20300 28 ft 1 kts 138°
2026-05-01 14:06 43.65255 7.20326 28 ft 5 kts 135°
2026-05-01 14:06 43.65218 7.20377 28 ft 9 kts 134°
2026-05-01 14:07 43.65167 7.20445 28 ft 8 kts 135°
2026-05-01 14:07 43.65102 7.20478 28 ft 11 kts 185°
2026-05-01 14:07 43.65036 7.20424 27 ft 13 kts 224°
2026-05-01 14:08 43.64895 7.20229 26 ft 15 kts 224°
2026-05-01 14:08 43.64835 7.20146 26 ft 11 kts 220°
2026-05-01 14:08 43.64767 7.20143 26 ft 4 kts 139°
2026-05-01 14:08 43.64759 7.20153 26 ft 0 kts 135°
2026-05-01 14:09 43.64756 7.20158 26 ft 2 kts 135°
2026-05-01 14:09 43.64733 7.20188 26 ft 6 kts 135°
2026-05-01 14:09 43.64701 7.20254 26 ft 10 kts 98°
2026-05-01 14:09 43.64745 7.20348 26 ft 14 kts 44°
2026-05-01 14:10 43.64993 7.20689 27 ft 102 kts 45°
2026-05-01 14:10 43.65699 7.21658 361 ft 164 kts 45°
2026-05-01 14:10 43.66463 7.22728 1495 ft 164 kts 54°
2026-05-01 14:10 43.66743 7.24168 2386 ft 158 kts 99°
2026-05-01 14:11 43.66276 7.25505 3126 ft 162 kts 131°
2026-05-01 14:11 43.64594 7.27860 4430 ft 185 kts 135°
2026-05-01 14:11 43.63584 7.29226 4817 ft 216 kts 135°
2026-05-01 14:12 43.62487 7.30718 5631 ft 225 kts 134°
2026-05-01 14:12 43.61321 7.32145 6454 ft 232 kts 146°
2026-05-01 14:12 43.59800 7.32917 7320 ft 237 kts 173°
2026-05-01 14:12 43.58184 7.32607 8115 ft 243 kts 204°
2026-05-01 14:13 43.56709 7.31362 8911 ft 252 kts 213°
2026-05-01 14:13 43.55743 7.30461 9598 ft 260 kts 213°
2026-05-01 14:13 43.53760 7.28636 11289 ft 261 kts 213°
2026-05-01 14:13 43.52250 7.27250 12209 ft 276 kts 213°
2026-05-01 14:14 43.50470 7.25620 12274 ft 328 kts 213°
2026-05-01 14:14 43.48454 7.23776 12622 ft 362 kts 213°
2026-05-01 14:14 43.46283 7.21791 13412 ft 379 kts 213°
2026-05-01 14:14 43.44083 7.19782 14355 ft 388 kts 213°
2026-05-01 14:15 43.41792 7.17692 15334 ft 394 kts 213°
2026-05-01 14:15 43.39508 7.15613 16278 ft 399 kts 213°
2026-05-01 14:15 43.37170 7.13488 17166 ft 405 kts 213°
2026-05-01 14:15 43.34806 7.11341 18040 ft 410 kts 213°
2026-05-01 14:16 43.32405 7.09162 18862 ft 417 kts 213°
2026-05-01 14:16 43.29965 7.06952 19688 ft 422 kts 213°
2026-05-01 14:16 43.27476 7.04701 20484 ft 428 kts 213°
2026-05-01 14:16 43.25013 7.02476 21246 ft 432 kts 213°
2026-05-01 14:17 43.22472 7.00183 21997 ft 437 kts 213°
2026-05-01 14:17 43.19905 6.97868 22734 ft 441 kts 213°
2026-05-01 14:17 43.17240 6.95714 23462 ft 443 kts 204°
2026-05-01 14:17 43.14374 6.94227 24119 ft 447 kts 199°
2026-05-01 14:18 43.11417 6.92777 24779 ft 452 kts 199°
2026-05-01 14:18 43.08435 6.91308 25421 ft 456 kts 200°
2026-05-01 14:18 43.05416 6.89821 26092 ft 459 kts 200°
2026-05-01 14:18 43.03431 6.88845 26596 ft 458 kts 200°
2026-05-01 14:19 42.99430 6.86878 27682 ft 454 kts 200°
2026-05-01 14:19 42.96505 6.85443 28491 ft 450 kts 200°
2026-05-01 14:19 42.93542 6.83990 29303 ft 447 kts 200°
2026-05-01 14:19 42.90643 6.82570 30140 ft 444 kts 201°
2026-05-01 14:20 42.87891 6.81223 30934 ft 441 kts 201°
2026-05-01 14:20 42.82141 6.78413 32550 ft 435 kts 202°
2026-05-01 14:20 42.79287 6.77020 33272 ft 432 kts 202°
2026-05-01 14:21 42.76455 6.75640 33955 ft 429 kts 202°
2026-05-01 14:21 42.73674 6.74285 34607 ft 427 kts 202°
2026-05-01 14:21 42.70872 6.72921 35101 ft 431 kts 203°
2026-05-01 14:22 42.65160 6.70143 35434 ft 438 kts 203°
2026-05-01 14:22 42.62220 6.68712 35412 ft 452 kts 203°
2026-05-01 14:22 42.56188 6.65785 35277 ft 466 kts 203°
2026-05-01 14:23 42.50095 6.62839 35287 ft 465 kts 203°
2026-05-01 14:23 42.44159 6.59339 35299 ft 463 kts 212°
2026-05-01 14:24 42.39125 6.54857 35289 ft 458 kts 221°
2026-05-01 14:24 42.34089 6.49506 35291 ft 457 kts 222°
2026-05-01 14:25 42.29096 6.44213 35290 ft 457 kts 222°
2026-05-01 14:25 42.24080 6.38909 35289 ft 456 kts 222°
2026-05-01 14:26 42.16821 6.31255 35278 ft 455 kts 221°
2026-05-01 14:27 42.11801 6.25976 35273 ft 455 kts 221°
2026-05-01 14:27 42.06798 6.20726 35276 ft 454 kts 221°
2026-05-01 14:28 41.99344 6.12927 35274 ft 453 kts 221°
2026-05-01 14:28 41.94349 6.07713 35272 ft 452 kts 221°
2026-05-01 14:29 41.89440 6.02600 35265 ft 452 kts 221°
2026-05-01 14:30 41.79459 5.92235 35259 ft 452 kts 221°
2026-05-01 14:31 41.71991 5.84509 35256 ft 452 kts 221°
2026-05-01 14:31 41.67013 5.79371 35255 ft 451 kts 221°
2026-05-01 14:32 41.62044 5.74253 35253 ft 451 kts 221°
2026-05-01 14:32 41.57052 5.69121 35250 ft 451 kts 221°
2026-05-01 14:33 41.52081 5.64023 35250 ft 450 kts 221°
2026-05-01 14:33 41.47118 5.58942 35248 ft 449 kts 221°
2026-05-01 14:34 41.42147 5.53863 35247 ft 449 kts 221°
2026-05-01 14:34 41.37180 5.48798 35245 ft 448 kts 221°
2026-05-01 14:35 41.32246 5.43776 35244 ft 447 kts 221°
2026-05-01 14:35 41.27349 5.38804 35242 ft 446 kts 221°
2026-05-01 14:36 41.22906 5.34299 35240 ft 445 kts 220°
2026-05-01 14:36 41.19022 5.30368 35238 ft 445 kts 220°
2026-05-01 14:37 41.13356 5.24644 35235 ft 444 kts 220°
2026-05-01 14:37 41.08436 5.19684 35234 ft 444 kts 220°
2026-05-01 14:38 41.03503 5.14720 35234 ft 443 kts 220°
2026-05-01 14:38 40.98618 5.09814 35235 ft 443 kts 220°
2026-05-01 14:39 40.93694 5.04879 35233 ft 442 kts 220°
2026-05-01 14:39 40.88953 5.00136 35254 ft 441 kts 220°
2026-05-01 14:40 40.84021 4.95211 35231 ft 442 kts 220°
2026-05-01 14:40 40.79109 4.90316 35228 ft 441 kts 220°
2026-05-01 14:41 40.74208 4.85440 35224 ft 441 kts 220°
2026-05-01 14:41 40.69290 4.80558 35227 ft 440 kts 220°
2026-05-01 14:42 40.64392 4.75703 35225 ft 440 kts 220°
2026-05-01 14:42 40.59507 4.70868 35223 ft 439 kts 221°
2026-05-01 14:43 40.55167 4.65306 35221 ft 433 kts 234°
2026-05-01 14:43 40.52084 4.58673 35216 ft 430 kts 245°
2026-05-01 14:44 40.49342 4.51677 35218 ft 430 kts 245°
2026-05-01 14:44 40.45206 4.41179 35215 ft 430 kts 245°
2026-05-01 14:45 40.41248 4.31177 35215 ft 430 kts 244°
2026-05-01 14:46 40.34302 4.13719 35204 ft 430 kts 244°
2026-05-01 14:47 40.31527 4.06772 35209 ft 430 kts 244°
2026-05-01 14:48 40.27357 3.96357 35210 ft 430 kts 244°
2026-05-01 14:48 40.23179 3.85958 35209 ft 430 kts 244°
2026-05-01 14:49 40.17582 3.72090 35207 ft 430 kts 244°
2026-05-01 14:50 40.11983 3.58309 35206 ft 429 kts 243°
2026-05-01 14:51 40.07772 3.47984 35205 ft 430 kts 243°
2026-05-01 14:52 40.03538 3.37633 35202 ft 430 kts 243°
2026-05-01 14:53 39.99638 3.28131 35188 ft 431 kts 243°
2026-05-01 14:53 39.96662 3.20899 35194 ft 431 kts 243°
2026-05-01 14:54 39.93425 3.14304 35200 ft 433 kts 232°
2026-05-01 14:54 39.89001 3.08922 35199 ft 436 kts 217°
2026-05-01 14:55 39.83739 3.04885 35193 ft 438 kts 211°
2026-05-01 14:55 39.78421 3.01017 35191 ft 437 kts 211°
2026-05-01 14:56 39.73051 2.97119 35194 ft 436 kts 211°
2026-05-01 14:56 39.67735 2.93267 35199 ft 436 kts 211°
2026-05-01 14:57 39.62365 2.89383 35200 ft 436 kts 211°
2026-05-01 14:57 39.54367 2.83612 35192 ft 437 kts 211°
2026-05-01 14:58 39.49020 2.79762 35185 ft 437 kts 211°
2026-05-01 14:58 39.43926 2.75557 35183 ft 434 kts 221°
2026-05-01 14:59 39.39798 2.69920 35177 ft 433 kts 232°
2026-05-01 14:59 39.36008 2.63888 35184 ft 432 kts 232°
2026-05-01 15:00 39.32177 2.57812 34672 ft 438 kts 232°
2026-05-01 15:00 39.30257 2.54771 34176 ft 436 kts 232°
2026-05-01 15:00 39.28363 2.51776 33573 ft 434 kts 232°
2026-05-01 15:01 39.26450 2.48753 32959 ft 431 kts 232°
2026-05-01 15:01 39.24559 2.45769 32381 ft 425 kts 232°
2026-05-01 15:01 39.22710 2.42853 31819 ft 421 kts 232°
2026-05-01 15:01 39.20860 2.39938 31222 ft 416 kts 232°
2026-05-01 15:02 39.19035 2.37066 30711 ft 411 kts 232°
2026-05-01 15:02 39.17833 2.35175 30346 ft 411 kts 232°
2026-05-01 15:02 39.15957 2.32227 29808 ft 409 kts 231°
2026-05-01 15:02 39.13720 2.28714 29133 ft 407 kts 231°
2026-05-01 15:03 39.11916 2.25884 28574 ft 404 kts 231°
2026-05-01 15:03 39.10138 2.23100 28034 ft 400 kts 231°
2026-05-01 15:03 39.08375 2.20338 27501 ft 396 kts 231°
2026-05-01 15:03 39.06632 2.17613 26957 ft 393 kts 231°
2026-05-01 15:04 39.04917 2.14932 26461 ft 390 kts 231°
2026-05-01 15:04 39.03197 2.12247 25948 ft 390 kts 231°
2026-05-01 15:04 39.01455 2.09529 25427 ft 388 kts 231°
2026-05-01 15:04 38.99746 2.06865 24922 ft 387 kts 231°
2026-05-01 15:05 38.98038 2.04205 24403 ft 384 kts 231°
2026-05-01 15:05 38.96342 2.01565 23894 ft 381 kts 231°
2026-05-01 15:05 38.94651 1.98937 23391 ft 379 kts 231°
2026-05-01 15:05 38.92977 1.96335 22890 ft 377 kts 231°
2026-05-01 15:06 38.91370 1.93724 22393 ft 374 kts 237°
2026-05-01 15:06 38.90282 1.90711 21884 ft 371 kts 253°
2026-05-01 15:06 38.89624 1.87528 21391 ft 368 kts 255°
2026-05-01 15:06 38.88971 1.84324 20887 ft 367 kts 255°
2026-05-01 15:07 38.88329 1.81192 20410 ft 365 kts 255°
2026-05-01 15:07 38.87685 1.78059 19926 ft 363 kts 255°
2026-05-01 15:07 38.87045 1.74949 19451 ft 360 kts 255°
2026-05-01 15:07 38.86400 1.71824 18960 ft 358 kts 255°
2026-05-01 15:08 38.85773 1.68787 18499 ft 355 kts 255°
2026-05-01 15:08 38.85141 1.65729 18031 ft 353 kts 255°
2026-05-01 15:08 38.84510 1.62683 17563 ft 351 kts 255°
2026-05-01 15:08 38.83888 1.59683 17102 ft 349 kts 255°
2026-05-01 15:09 38.83237 1.56692 16636 ft 346 kts 254°
2026-05-01 15:09 38.82589 1.53765 16178 ft 345 kts 254°
2026-05-01 15:09 38.81938 1.50824 15727 ft 341 kts 254°
2026-05-01 15:09 38.81294 1.47919 15271 ft 333 kts 254°
2026-05-01 15:10 38.80672 1.45115 14846 ft 325 kts 254°
2026-05-01 15:10 38.78947 1.39920 13993 ft 311 kts 242°
2026-05-01 15:10 38.77951 1.37530 13601 ft 305 kts 242°
2026-05-01 15:11 38.76958 1.35136 13193 ft 300 kts 242°
2026-05-01 15:11 38.75058 1.30562 12382 ft 288 kts 242°
2026-05-01 15:11 38.74136 1.28343 12040 ft 276 kts 242°
2026-05-01 15:12 38.73243 1.26204 11668 ft 267 kts 242°
2026-05-01 15:12 38.71529 1.22101 11024 ft 255 kts 242°
2026-05-01 15:12 38.70774 1.20303 10630 ft 257 kts 242°
2026-05-01 15:13 38.68260 1.14296 9661 ft 253 kts 242°
2026-05-01 15:14 38.66723 1.10628 8941 ft 255 kts 242°
2026-05-01 15:14 38.65884 1.08627 8489 ft 257 kts 242°
2026-05-01 15:14 38.64405 1.04526 7857 ft 251 kts 259°
2026-05-01 15:15 38.63895 1.00214 7345 ft 240 kts 268°
2026-05-01 15:15 38.65093 0.96452 6765 ft 232 kts 320°
2026-05-01 15:16 38.67997 0.95061 6152 ft 226 kts
2026-05-01 15:16 38.70554 0.97063 5496 ft 223 kts 58°
2026-05-01 15:17 38.72018 1.00481 5041 ft 219 kts 62°
2026-05-01 15:18 38.74147 1.05672 4400 ft 216 kts 62°
2026-05-01 15:18 38.74842 1.07391 4222 ft 217 kts 63°
2026-05-01 15:19 38.76967 1.12524 3726 ft 216 kts 62°
2026-05-01 15:19 38.78380 1.15879 3384 ft 215 kts 62°
2026-05-01 15:19 38.79104 1.17595 3120 ft 216 kts 63°
2026-05-01 15:20 38.80477 1.20923 2614 ft 200 kts 63°
2026-05-01 15:20 38.81103 1.22430 2376 ft 190 kts 63°
2026-05-01 15:20 38.81728 1.23931 2104 ft 187 kts 63°
2026-05-01 15:21 38.82324 1.25361 1851 ft 175 kts 63°
2026-05-01 15:21 38.82858 1.26644 1655 ft 151 kts 63°
2026-05-01 15:21 38.83318 1.27750 1489 ft 133 kts 64°
2026-05-01 15:21 38.83744 1.28793 1281 ft 128 kts 64°
2026-05-01 15:22 38.84561 1.30764 913 ft 124 kts 63°
2026-05-01 15:22 38.84964 1.31752 751 ft 122 kts 62°
2026-05-01 15:22 38.85385 1.32719 650 ft 124 kts 61°
2026-05-01 15:23 38.85794 1.33694 488 ft 125 kts 65°
2026-05-01 15:23 38.86197 1.34683 295 ft 124 kts 62°
2026-05-01 15:23 38.86607 1.35667 109 ft 125 kts 64°
2026-05-01 15:23 38.87035 1.36718 594 ft 143 kts 63°
2026-05-01 15:24 38.87574 1.38025 1220 ft 191 kts 61°
2026-05-01 15:24 38.88191 1.39580 2294 ft 203 kts 61°
2026-05-01 15:24 38.88924 1.41177 2857 ft 210 kts 66°
2026-05-01 15:24 38.89506 1.42917 2917 ft 215 kts 76°
2026-05-01 15:25 38.89472 1.44821 2668 ft 210 kts 103°